RYR4C LERS-EGSS

Flight info

Callsign RYR4C
Flight time N/A
Altitude 32000
Route NATPI DCT EVNAM DCT TUPAR UN861 DIKRO UM185 TELTU
Aircraft B38M/M-SDE1FGHILORVWXY/HB1

Departure

Time 2026-04-23 13:40
Airport Reus Airport (LERS)

Arrival

Time N/A
Airport London Stansted Airport (EGSS)
Time Latitude Longitude Altitude Speed Heading
2026-04-23 13:09 41.14729 1.15804 242 ft 0 kts 338°
2026-04-23 13:26 41.14728 1.15804 242 ft 1 kts 338°
2026-04-23 13:26 41.14706 1.15815 242 ft 4 kts 343°
2026-04-23 13:26 41.14688 1.15827 242 ft 4 kts 329°
2026-04-23 13:26 41.14666 1.15848 242 ft 4 kts 316°
2026-04-23 13:27 41.14658 1.15859 242 ft 1 kts 313°
2026-04-23 13:34 41.14661 1.15850 242 ft 2 kts 291°
2026-04-23 13:34 41.14656 1.15833 242 ft 3 kts 240°
2026-04-23 13:34 41.14646 1.15798 242 ft 6 kts 250°
2026-04-23 13:35 41.14629 1.15737 242 ft 9 kts 250°
2026-04-23 13:35 41.14605 1.15651 242 ft 11 kts 250°
2026-04-23 13:35 41.14569 1.15561 241 ft 7 kts 199°
2026-04-23 13:35 41.14515 1.15571 242 ft 9 kts 158°
2026-04-23 13:36 41.14514 1.15572 242 ft 0 kts 158°
2026-04-23 13:38 41.14510 1.15574 242 ft 2 kts 158°
2026-04-23 13:38 41.14493 1.15583 242 ft 4 kts 158°
2026-04-23 13:38 41.14460 1.15601 242 ft 7 kts 155°
2026-04-23 13:38 41.14425 1.15638 241 ft 5 kts 98°
2026-04-23 13:39 41.14429 1.15661 241 ft 1 kts 68°
2026-04-23 13:39 41.14516 1.15937 240 ft 74 kts 70°
2026-04-23 13:39 41.14788 1.16886 245 ft 143 kts 68°
2026-04-23 13:39 41.15208 1.18278 643 ft 172 kts 72°
2026-04-23 13:40 41.15620 1.19689 1871 ft 155 kts 71°
2026-04-23 13:40 41.16039 1.21101 2641 ft 175 kts 72°
2026-04-23 13:40 41.16537 1.22683 3296 ft 199 kts 64°
2026-04-23 13:40 41.17592 1.24041 3864 ft 229 kts 32°
2026-04-23 13:41 41.19213 1.24512 4799 ft 244 kts
2026-04-23 13:41 41.20927 1.24523 5873 ft 254 kts
2026-04-23 13:41 41.22750 1.24762 6589 ft 273 kts
2026-04-23 13:41 41.24692 1.24997 7290 ft 285 kts
2026-04-23 13:42 41.26672 1.25223 8272 ft 286 kts
2026-04-23 13:42 41.28663 1.25439 9251 ft 288 kts
2026-04-23 13:42 41.30672 1.25650 10185 ft 291 kts
2026-04-23 13:42 41.32724 1.25860 10823 ft 303 kts
2026-04-23 13:43 41.34880 1.26087 11344 ft 317 kts
2026-04-23 13:43 41.37113 1.26324 11972 ft 324 kts
2026-04-23 13:43 41.39357 1.26556 12776 ft 325 kts 360°
2026-04-23 13:43 41.41622 1.26786 13471 ft 328 kts
2026-04-23 13:44 41.43913 1.27020 14132 ft 332 kts
2026-04-23 13:44 41.46220 1.27255 14762 ft 333 kts
2026-04-23 13:44 41.48536 1.27489 15413 ft 335 kts
2026-04-23 13:44 41.50865 1.27726 16138 ft 336 kts
2026-04-23 13:45 41.53206 1.27963 16824 ft 338 kts
2026-04-23 13:45 41.55561 1.28203 17486 ft 341 kts
2026-04-23 13:45 41.57939 1.28447 18109 ft 343 kts
2026-04-23 13:45 41.60319 1.28689 18718 ft 344 kts
2026-04-23 13:46 41.62722 1.28933 19198 ft 348 kts
2026-04-23 13:46 41.65148 1.29181 19676 ft 351 kts
2026-04-23 13:46 41.67585 1.29430 20176 ft 352 kts
2026-04-23 13:46 41.70006 1.29677 20624 ft 355 kts
2026-04-23 13:47 41.72479 1.29929 21079 ft 358 kts
2026-04-23 13:47 41.74972 1.30184 21540 ft 360 kts
2026-04-23 13:47 41.77477 1.30440 21977 ft 363 kts
2026-04-23 13:47 41.80001 1.30698 22433 ft 364 kts
2026-04-23 13:48 41.82533 1.30957 22838 ft 367 kts
2026-04-23 13:48 41.85085 1.31219 23242 ft 369 kts
2026-04-23 13:48 41.87651 1.31482 23651 ft 371 kts
2026-04-23 13:48 41.90227 1.31747 23964 ft 373 kts
2026-04-23 13:49 41.92819 1.32013 24308 ft 374 kts
2026-04-23 13:49 41.95418 1.32280 24625 ft 375 kts
2026-04-23 13:49 41.98024 1.32548 24944 ft 377 kts
2026-04-23 13:49 42.00647 1.32817 25234 ft 379 kts
2026-04-23 13:50 42.03282 1.33088 25525 ft 380 kts
2026-04-23 13:50 42.05923 1.33361 25803 ft 382 kts
2026-04-23 13:50 42.08583 1.33635 26131 ft 384 kts
2026-04-23 13:50 42.11249 1.33910 26455 ft 386 kts
2026-04-23 13:51 42.13933 1.34187 26784 ft 387 kts
2026-04-23 13:51 42.16620 1.34464 27073 ft 388 kts
2026-04-23 13:51 42.19324 1.34744 27370 ft 391 kts
2026-04-23 13:51 42.22030 1.34819 27630 ft 387 kts 349°
2026-04-23 13:52 42.24678 1.34220 27914 ft 387 kts 347°
2026-04-23 13:52 42.27351 1.33648 28209 ft 390 kts 347°
2026-04-23 13:52 42.30035 1.33061 28423 ft 392 kts 347°
2026-04-23 13:52 42.32727 1.32464 28654 ft 392 kts 347°
2026-04-23 13:53 42.35425 1.31865 28893 ft 393 kts 347°
2026-04-23 13:53 42.38132 1.31262 29075 ft 395 kts 347°
2026-04-23 13:53 42.40848 1.30656 29304 ft 396 kts 347°
2026-04-23 13:53 42.43568 1.30047 29504 ft 397 kts 347°
2026-04-23 13:54 42.46289 1.29440 29777 ft 396 kts 347°
2026-04-23 13:54 42.49011 1.28832 30011 ft 396 kts 347°
2026-04-23 13:54 42.51716 1.28226 30312 ft 394 kts 347°
2026-04-23 13:54 42.54424 1.27619 30526 ft 394 kts 347°
2026-04-23 13:55 42.57125 1.27014 30790 ft 394 kts 347°
2026-04-23 13:55 42.59830 1.26407 30993 ft 394 kts 347°
2026-04-23 13:55 42.62529 1.25800 31244 ft 393 kts 347°
2026-04-23 13:55 42.65188 1.25202 31486 ft 393 kts 347°
2026-04-23 13:56 42.67879 1.24597 31735 ft 392 kts 347°
2026-04-23 13:56 42.70151 1.24084 31940 ft 392 kts 347°
2026-04-23 13:56 42.72858 1.23549 32066 ft 395 kts 352°
2026-04-23 13:56 42.75584 1.23223 32181 ft 394 kts 351°
2026-04-23 13:57 42.78318 1.22866 32133 ft 393 kts 350°
2026-04-23 13:57 42.83751 1.22123 32088 ft 392 kts 350°
2026-04-23 13:58 42.89184 1.21370 32111 ft 392 kts 350°
2026-04-23 13:58 42.94618 1.20615 32106 ft 392 kts 351°
2026-04-23 13:59 43.00046 1.19859 32105 ft 392 kts 350°
2026-04-23 13:59 43.05468 1.19104 32093 ft 392 kts 350°
2026-04-23 14:00 43.09976 1.18473 32102 ft 392 kts 350°
2026-04-23 14:00 43.16312 1.17587 32082 ft 391 kts 350°
2026-04-23 14:01 43.21726 1.16828 32086 ft 392 kts 350°
2026-04-23 14:01 43.27150 1.16066 32086 ft 391 kts 350°
2026-04-23 14:02 43.32563 1.15305 32092 ft 391 kts 350°
2026-04-23 14:02 43.37978 1.14542 32086 ft 391 kts 350°
2026-04-23 14:03 43.43418 1.13774 32115 ft 394 kts 350°
2026-04-23 14:03 43.48867 1.13003 32100 ft 394 kts 350°
2026-04-23 14:04 43.54316 1.12231 32106 ft 394 kts 350°
2026-04-23 14:04 43.59716 1.11407 32115 ft 391 kts 345°
2026-04-23 14:04 43.62247 1.10176 32147 ft 384 kts 332°
2026-04-23 14:05 43.64716 1.08718 32096 ft 386 kts 335°
2026-04-23 14:05 43.69669 1.05830 32117 ft 386 kts 334°
2026-04-23 14:06 43.74604 1.02890 32114 ft 386 kts 334°
2026-04-23 14:06 43.79537 0.99934 32106 ft 386 kts 334°
2026-04-23 14:07 43.84462 0.96976 32112 ft 386 kts 334°
2026-04-23 14:07 43.91849 0.92529 32107 ft 386 kts 334°
2026-04-23 14:08 43.96771 0.89559 32100 ft 386 kts 334°
2026-04-23 14:08 44.01685 0.86588 32098 ft 386 kts 334°
2026-04-23 14:09 44.06608 0.83608 32097 ft 385 kts 334°
2026-04-23 14:09 44.11522 0.80626 32101 ft 385 kts 334°
2026-04-23 14:10 44.16400 0.77662 32098 ft 385 kts 334°
2026-04-23 14:10 44.21321 0.74666 32093 ft 387 kts 334°
2026-04-23 14:11 44.26261 0.71652 32100 ft 388 kts 334°
2026-04-23 14:11 44.31207 0.68629 32100 ft 388 kts 334°
2026-04-23 14:12 44.35346 0.66095 32102 ft 388 kts 334°